Regional Weather Roundup
Issued by NWS Green Bay, WI

Home | Current Version | Previous Version | Text Only | Print | Product List | Glossary On
Versions: 1 2 3 4 5 6 7 8 9 10 11 12 13 14 15 16 17 18 19 20 21 22 23 24 25 26 27 28 29 30 31 32 33 34 35 36 37 38 39 40 41 42 43 44 45 46 47 48 49 50
000
ASUS43 KGRB 232310
RWRGRB

NORTH-CENTRAL AND NORTHEAST WISCONSIN REGIONAL WEATHER ROUNDUP
NATIONAL WEATHER SERVICE GREEN BAY WI
600 PM CDT WED APR 23 2014

WIZ005-009-010>012-018-019-240000-
NORTH CENTRAL WISCONSIN

CITY           SKY/WX    TMP DP  RH WIND       PRES   REMARKS
IRONWOOD       CLOUDY    54  19  26 S7        30.00F
MANITOWISH WTR CLOUDY    51  20  29 E5        30.03F
ARBOR VITAE    CLOUDY    55  18  23 S7        30.04F
EAGLE RIVER    CLOUDY    51  15  23 SE7       30.05S
LAND O LAKES   CLOUDY    53  17  24 SE5       30.05F
RHINELANDER    PTSUNNY   51  19  28 SE8       30.06S
PHILLIPS       CLOUDY    50  26  39 S9        30.03F
ANTIGO         PTSUNNY   47  26  42 SE13      30.08F
TOMAHAWK       CLOUDY    50  23  34 S5        30.05F
MERRILL        CLOUDY    50  25  38 S5        30.07F
$$

WIZ013-073-240000-
NORTHEAST WISCONSIN

CITY           SKY/WX    TMP DP  RH WIND       PRES   REMARKS
IRON MOUNTAIN  MOSUNNY   54  14  20 S5        30.06F
MARINETTE      MOSUNNY   45  12  26 S10       30.13S
OCONTO         MOSUNNY   46  10  23 SE9       30.14S
$$

WIZ017-030-035>037-045-240000-
CENTRAL WISCONSIN

CITY           SKY/WX    TMP DP  RH WIND       PRES   REMARKS
MEDFORD        CLOUDY    47  24  40 SE9       30.05F
WAUSAU         CLOUDY    49  22  34 SE12      30.06F
MOSINEE        SUNNY     48  23  37 SE8       30.09F
MARSHFIELD     CLOUDY    50  24  36 SE13      30.05F
WISC RAPIDS    CLOUDY    50  22  33 E12       30.08F
STEVENS POINT  CLOUDY    47  23  37 SE8       30.09F
WAUPACA        CLOUDY    52  25  35 SE8       30.11S
SHAWANO        PTSUNNY   50  19  28 SE5       30.12F
CLINTONVILLE   CLOUDY    50  19  29 SE3       30.11F
$$

WIZ038-039-048-051-240000-
FOX VALLEY

CITY           SKY/WX    TMP DP  RH WIND       PRES   REMARKS
NWS GREEN BAY  CLOUDY    47  24  40 NE9       30.13F
APPLETON       PTSUNNY   48  27  43 SE9       30.12S
OSHKOSH        CLOUDY    47  26  44 E10       30.11S
FOND DU LAC    CLOUDY    50  25  37 SE12      30.11S
$$

WIZ022-050-052-240000-
EAST CENTRAL WISCONSIN

CITY           SKY/WX    TMP DP  RH WIND       PRES   REMARKS
STURGEON BAY   MOSUNNY   43  10  26 E6        30.15S
MANITOWOC      CLOUDY    43   8  23 NE5       30.14F
SHEBOYGAN      CLOUDY    42   8  24 NE9       30.14F
$$

LMZ563-521-522-541>543-240000-
LAKESHORE

STATION/POSITION TIME  TEMP    WIND        PRES    VSBY  WAVE
                       AIR SEA DIR/SP/G                  HT/PER
                 (UTC) (F)     (DEG/KT/KT) (MB)    (MI)  (FT/S)
SHEBOYGAN LKSHOR 2300   38      10/  4/  4 1021.5F
KEWAUNEE LKSHORE 2300   38      40/  3/  5 1021.6F
NORTHPORT PIER   2300   42     150/  8/ 11 1020.7S
SISTER BAY LKSHO 2300   47     140/  8/ 10   N/A
MENOMINEE LKSHOR 2300   43     170/  8/  9 1021.0S
$$



USA.gov is the U.S. government's official web portal to all federal, state and local government web resources and services.